User: anonymous   Login
Location: Unspecified
(0.0000°N, 0.0000°E)
Time: 06:10:06
(UTC+00:00)
Language:

Snapshot - Orbit

View from above orbital plane
View from above orbital plane
View from above satellite
View from above satellite

Ground track
Ground track

The orbit data is extracted from the following two-line orbital elements,

1  1314U 65027A   17051.72195028 +.00000024 +00000-0 +60830-4 0  9994
2  1314 090.3058 281.5039 0030832 160.8511 265.4867 12.91748627191626
Epoch (UTC): 20 February 2017 17:19:36
Eccentricity: 0.0030832
inclination: 90.3058°
perigee height: 1271 km
apogee height: 1318 km
right ascension of ascending node: 281.5039°
argument of perigee: 160.8511°
revolutions per day: 12.91748627
mean anomaly at epoch: 265.4867°
orbit number at epoch: 19162

The dashed part of the orbit path shows where the satellite is in the earth's shadow,  

DLR